Regional Weather Roundup
Issued by NWS

Home | Current Version | Previous Version | Graphics & Text | Print | Product List | Glossary Off
Versions: 1 2 3 4 5 6 7 8 9 10 11 12 13 14 15 16 17 18 19 20 21 22 23 24 25 26 27 28 29 30 31 32 33 34 35 36 37 38 39 40 41 42 43 44 45 46 47 48 49 50

000
ASUS43 KMPX 291001
RWRMN
WEATHER ROUNDUP FOR MINNESOTA
NATIONAL WEATHER SERVICE TWIN CITIES/CHANHASSEN MN
500 AM CDT SAT JUL 29 2017


NOTE: "FAIR" INDICATES FEW OR NO CLOUDS BELOW 12,000 FEET WITH NO
SIGNIFICANT WEATHER AND/OR OBSTRUCTIONS TO VISIBILITY. N/A MEANS
CURRENT SKY AND/OR WEATHER CONDITIONS ARE NOT AVAILABLE.

MNZ060>063-068>070-291100-
   Twin Cities Metro

CITY           SKY/WX    TMP DP  RH WIND       PRES   REMARKS
TWIN CITIES    PTCLDY    65  57  75 CALM      30.13R
ST PAUL        CLEAR     62  58  86 CALM      30.14R
CRYSTAL        CLEAR     60  55  83 CALM      30.12R
BLAINE         CLEAR     61  59  94 CALM      30.14R
LAKEVILLE      CLEAR     55  55 100 CALM      30.14R
EDEN PRAIRIE   CLEAR     65  58  78 CALM      30.12R
SOUTH ST PAUL  CLEAR     62  58  88 CALM      30.13R
LAKE ELMO      FAIR      57  55  94 CALM      30.15R
$$
MNZ001>005-007-008-013>017-022>024-027-028-291100-
   Northwest Minnesota

CITY           SKY/WX    TMP DP  RH WIND       PRES   REMARKS
BEMIDJI        CLEAR     64  59  83 S5        30.11S
HALLOCK        CLEAR     61  61 100 SE8       30.02S
ROSEAU         PTCLDY    63  57  82 S7        30.06R
WARROAD        CLEAR     63  59  88 S3        30.07R
CROOKSTON      PTCLDY    63  61  94 S6        30.07R
FOSSTON        CLEAR     61  57  88 S5        30.10S
DETROIT LAKES  CLEAR     64  63  94 SE5       30.13R
MOORHEAD       CLEAR     64  61  88 SE7       30.08S
PARK RAPIDS    CLEAR     62  58  86 CALM      30.13R
MAHNOMEN       FAIR      64  61  90 S6        30.10R
$$
MNZ006-009>011-018-025>026-291100-
   North Central Minnesota

CITY           SKY/WX    TMP DP  RH WIND       PRES   REMARKS
BAUDETTE       CLEAR     61  60  97 SW5       30.08R
FLAG ISLAND    CLEAR     70  66  88 SW5       30.04S
INTL FALLS     CLEAR     57  55  93 SE5       30.09R
WASKISH        CLEAR     59  57  94 CALM      30.09S
BIG FORK       PTCLDY    55  55 100 CALM      30.12R FOG
LONGVILLE      CLEAR     55  55 100 CALM      30.12S FOG
GRAND RAPIDS   PTCLDY    59  58  96 CALM      30.15R
CRANE LAKE     PTCLDY    54  54 100 CALM      30.12S
ORR            CLEAR     61  55  82 CALM      30.10R
COOK             N/A     55  55 100 CALM      30.13R
WALKER         FAIR      64  58  80 SW5       30.12R
$$
MNZ012-019>021-037-291100-
   Northeast Minnesota

CITY           SKY/WX    TMP DP  RH WIND       PRES   REMARKS
DULUTH         CLEAR     57  55  93 CALM      30.14R
ELY            CLEAR     54  54 100 CALM      30.13S
HIBBING        CLEAR     50  50 100 CALM      30.14R FOG
EVELETH        CLEAR     52  50  93 CALM      30.15S
DULUTH HARBOR  PTCLDY    64  61  88 NE3       30.13S
SILVER BAY     PTCLDY    52  52 100 CALM      30.12S
GRAND MARAIS     N/A     55  52  89 CALM      30.12R
G MARAIS ARPRT CLEAR     50  46  87 CALM      30.16S
$$
MNZ029>031-032-039>041-046>048-054>057-064-291100-
   West Central Minnesota

CITY           SKY/WX    TMP DP  RH WIND       PRES   REMARKS
FERGUS FALLS   CLEAR     66  61  82 SE5       30.10R
WHEATON        CLEAR     57  55  94 SE3       30.12R
MORRIS         CLEAR     63  59  88 SE6       30.11R
ALEXANDRIA     CLEAR     64  60  87 S5        30.15R
ELBOW LAKE     FAIR      64  61  89 E6        30.12R FOG
WADENA         CLEAR     57  57 100 CALM      30.12S
GLENWOOD       CLEAR     61  59  94 CALM      30.14R
APPLETON       CLEAR     63  57  82 CALM      30.10S
BENSON         CLEAR     59  57  94 CALM      30.13R
ORTONVILLE       N/A    N/A N/A N/A MISG        N/A
MADISON        CLEAR     61  61 100 SE5       30.11R
WILLMAR        FAIR      63  61  94 SE3       30.14S
$$
MNZ033>034-036-042>043-049>051-058-059-291100-
   Central Minnesota

CITY           SKY/WX    TMP DP  RH WIND       PRES   REMARKS
ST CLOUD       CLEAR     57  57 100 CALM      30.14R
SAUK CENTRE    FAIR      57  56  97 CALM      30.14R
PAYNESVILLE    CLEAR     59  58  94 CALM      30.14R
AITKIN           N/A     52  50  93 CALM      30.12S FOG
PINE RIVER     CLEAR     57  57 100 MISG      30.16R FOG
BRAINERD       CLEAR     59  57  93 S3        30.13R
STAPLES        CLEAR     57  55  94 CALM      30.13R FOG
LONG PRAIRIE   FAIR      59  59 100 CALM      30.14S
LITTLE FALLS   CLEAR     59  55  88 CALM      30.14R
LITCHFIELD     CLEAR     64  61  88 CALM      30.14S
BUFFALO        CLEAR     59  55  86 CALM      30.15R
MAPLE LAKE     CLEAR     59  58  96 CALM      30.15R
HUTCHINSON     CLEAR     58  57  97 CALM      30.14S
$$
MNZ037-044-045-052-053-291100-
   East Central Minnesota

CITY           SKY/WX    TMP DP  RH WIND       PRES   REMARKS
PRINCETON      CLEAR     55  55 100 CALM      30.14R
MORA           CLEAR     55  55 100 CALM      30.15S
CAMBRIDGE      CLEAR     59  55  88 CALM      30.12R
RUSH CITY      MOCLDY    56  55  95 CALM      30.14R
MOOSE LAKE       N/A     54  54 100 CALM      30.13R FOG
HINCKLEY       FAIR      55  55 100 CALM      30.14R
CLOQUET        PTCLDY    55  52  88 CALM      30.14S
MCGREGOR         N/A     54  52  94 CALM      30.14S VSB 1/2
$$
MNZ071>073-080-081-089-090-097-098-291100-
   Southwest Minnesota

CITY           SKY/WX    TMP DP  RH WIND       PRES   REMARKS
MONTEVIDEO     CLEAR     61  57  88 S3        30.12R
GRANITE FALLS  CLEAR     65  61  87 SE5       30.13S
CANBY          CLEAR     61  59  95 CALM      30.12S
MARSHALL       CLEAR     61  59  93 CALM      30.12R
REDWOOD FALLS  CLEAR     62  57  83 CALM      30.12R
OLIVIA         CLEAR     63  57  82 SE3       30.12S
PIPESTONE      CLEAR     63  59  88 SE3       30.12S
WINDOM         CLEAR     63  57  82 CALM      30.13S
WORTHINGTON    CLEAR     59  57  93 E3        30.14R
JACKSON        CLEAR     59  55  88 CALM      30.14R
TRACY          CLEAR     66  61  82 S7        30.12S
SLAYTON        HVY RAIN  59  56  91 E5        30.13S
$$
MNZ065>067-074>077-082>085-091>093-291100-
   South Central Minnesota

CITY           SKY/WX    TMP DP  RH WIND       PRES   REMARKS
MANKATO        CLEAR     61  58  90 SE3       30.14R
NEW ULM        CLEAR     61  57  88 CALM      30.13R
ST JAMES       CLEAR     57  57 100 CALM      30.13S
FAIRMONT       CLEAR     59  56  89 S5        30.13R
GLENCOE        CLEAR     59  59 100 CALM      30.13R
FARIBAULT      CLEAR     55  55 100 CALM      30.14R
OWATONNA       CLEAR     55  54  94 CALM      30.14R
WASECA         CLEAR     55  54  94 CALM      30.15R
ALBERT LEA     CLEAR     59  57  94 CALM      30.14R
$$
MNZ078>079-086>088-094>096-291100-
   Southeast Minnesota

CITY           SKY/WX    TMP DP  RH WIND       PRES   REMARKS
ROCHESTER      CLEAR     56  55  97 S5        30.15R
RED WING       CLEAR     57  55  94 CALM      30.13R
STANTON        CLEAR     56  55  95 CALM      30.13R
DODGE CENTER   CLEAR     57  54  88 CALM      30.15R
WINONA         MOCLDY    59  57  94 NW3       30.14R
AUSTIN         CLEAR     55  54  94 CALM      30.14R
PRESTON        CLEAR     60  55  82 CALM      30.16R
$$
ABBREVIATIONS USED IN REMARKS
   TC - TEMPERATURES IN CELSIUS
  WCI - WIND CHILL INDEX
   HX - HEAT INDEX
  VSB - VISIBILITY
$$



USA.gov is the U.S. government's official web portal to all federal, state and local government web resources and services.